Flag for Uruguay Weather past 2 weeks in Treinta y Tres, Uruguay

Now
48 °F

Clear.


Feels Like: 43 °F
Forecast: 44 / 60 °F
Wind: 13 mph from Northeast

Location: Capitan Corbeta

Current Time: Jul 6, 2015 at 2:17:27 AM

Latest Report: Jul 6, 2015 at 1:00 AM


Visibility: 10 mi

Pressure: 30.04 "Hg

Humidity: 87%

Dew point: 45 °F

Location of Treinta y TresLocation

Historic Weather in Treinta y Tres — Graph

°F

Treinta y Tres temperature yesterday

Maximum temperature yesterday: 59 °F (at 4:00 PM)
Minimum temperature yesterday: 32 °F (at 8:00 AM)
Average temperature yesterday: 47 °F

Past Weeks' High & Low Weather Summary

 TemperatureHumidityPressure
High73 °F (Jun 27, 1:00 PM)100% (Jun 24, 2:00 AM)30.51 "Hg (Jun 24, 2:00 AM)
Low30 °F (Jun 24, 6:00 AM)44% (Jul 5, 3:00 PM)29.74 "Hg (Jun 30, 6:00 AM)
Average52 °F76%30.15 "Hg
* Reported Jun 21 1:00 AM — Jul 6 1:00 AM, Treinta y Tres, Weather by CustomWeather, © 2015

Note: Actual official high and low records may vary slightly from our data, if they occured in-between our weather recording intervals... More about our weather records

Advertising

Treinta y Tres weather history for previous 24 hours

 ConditionsComfort  
Time TempWeatherWind HumidityBarometerVisibility
1:00 AM
Mon, Jul 6
48 °FClear.13 mph87%30.04 "Hg10 mi
12:00 AM46 °FClear.14 mph87%30.04 "Hg10 mi
11:00 PM
Sun, Jul 5
45 °FClear.16 mph81%30.07 "Hg10 mi
10:00 PM46 °FClear.13 mph82%30.07 "Hg10 mi
9:00 PM46 °FClear.10 mph76%30.07 "Hg10 mi
8:00 PM46 °FClear.5 mph76%30.09 "Hg10 mi
7:00 PM48 °FClear.3 mph71%30.09 "Hg10 mi
6:00 PM52 °FClear.8 mph62%30.09 "Hg10 mi
5:00 PM55 °FClear.13 mph51%30.07 "Hg10 mi
4:00 PM59 °FSunny.14 mph45%30.09 "Hg10 mi
3:00 PM57 °FSunny.13 mph44%30.09 "Hg10 mi
2:00 PM55 °FSunny.13 mph51%30.12 "Hg10 mi
1:00 PM54 °FSunny.13 mph58%30.18 "Hg10 mi
12:00 PM52 °FPassing clouds.15 mph72%30.21 "HgN/A
11:00 AM45 °FSunny.7 mph87%30.24 "Hg10 mi
10:00 AM39 °FSunny.5 mph87%30.24 "Hg10 mi
9:00 AM36 °FChilly.No wind100%30.24 "HgN/A
8:00 AM32 °FFog.No wind100%30.21 "Hg1 mi
Weather by CustomWeather, © 2015

See weather overviewHow to use our weather pages